Time,TemperatureF,DewpointF,PressureIn,WindDirection,WindDirectionDegrees,WindSpeedMPH,WindSpeedGustMPH,Humidity,HourlyPrecipIn,Conditions,Clouds,dailyrainin,SoftwareType,DateUTC
2013-05-28 00:01:00,41.4,40.0,29.92,WSW,256,4.9,6.3,95,0.00,,CLR,0.00,VWS V14.01,2013-05-28 06:01:00,
2013-05-28 00:06:00,41.9,40.6,29.92,SW,229,2.2,4.0,95,0.00,,CLR,0.00,VWS V14.01,2013-05-28 06:06:00,
2013-05-28 00:11:00,42.1,41.0,29.92,SW,229,0.0,4.0,96,0.00,,CLR,0.00,VWS V14.01,2013-05-28 06:11:00,
2013-05-28 00:16:00,42.4,41.4,29.92,SW,229,0.0,4.0,96,0.00,,CLR,0.00,VWS V14.01,2013-05-28 06:16:00,
2013-05-28 00:21:00,43.0,41.7,29.92,SW,226,0.0,4.0,95,0.00,,CLR,0.00,VWS V14.01,2013-05-28 06:21:00,
2013-05-28 00:26:00,43.0,41.7,29.92,South,173,0.0,4.0,95,0.00,,CLR,0.00,VWS V14.01,2013-05-28 06:26:00,
2013-05-28 00:31:00,42.8,41.5,29.92,SSE,152,4.0,4.0,95,0.00,,CLR,0.00,VWS V14.01,2013-05-28 06:31:00,
2013-05-28 00:36:00,42.6,41.6,29.92,SE,141,2.2,5.8,96,0.00,,CLR,0.00,VWS V14.01,2013-05-28 06:36:00,
2013-05-28 00:41:00,43.3,42.3,29.92,SSE,166,3.6,6.3,96,0.00,,CLR,0.00,VWS V14.01,2013-05-28 06:41:00,
2013-05-28 00:46:00,44.6,43.5,29.92,South,182,7.6,7.6,96,0.00,,CLR,0.00,VWS V14.01,2013-05-28 06:46:00,
2013-05-28 00:51:00,45.3,44.2,29.92,SSE,166,3.6,8.1,96,0.00,,CLR,0.00,VWS V14.01,2013-05-28 06:51:00,
2013-05-28 00:56:00,45.5,43.9,29.92,SE,142,4.9,8.1,94,0.00,,CLR,0.00,VWS V14.01,2013-05-28 06:56:00,
2013-05-28 01:01:00,45.9,43.1,29.92,SE,136,5.8,8.1,90,0.00,,CLR,0.00,VWS V14.01,2013-05-28 07:01:00,
2013-05-28 01:06:00,46.4,41.5,29.92,SSE,154,5.8,6.7,83,0.00,,CLR,0.00,VWS V14.01,2013-05-28 07:06:00,
2013-05-28 01:11:00,46.4,41.2,29.92,SSE,153,5.4,6.7,82,0.00,,CLR,0.00,VWS V14.01,2013-05-28 07:11:00,
2013-05-28 01:16:00,46.4,41.2,29.89,South,190,2.7,6.7,82,0.00,,CLR,0.00,VWS V14.01,2013-05-28 07:16:00,
2013-05-28 01:21:00,46.0,43.0,29.89,South,191,0.0,6.7,89,0.00,,CLR,0.00,VWS V14.01,2013-05-28 07:21:00,
2013-05-28 01:26:00,45.7,42.0,29.89,SSE,164,0.0,6.7,87,0.00,,CLR,0.00,VWS V14.01,2013-05-28 07:26:00,
2013-05-28 01:31:00,45.7,42.6,29.89,SSE,166,0.0,6.7,89,0.00,,CLR,0.00,VWS V14.01,2013-05-28 07:31:00,
2013-05-28 01:36:00,45.7,41.4,29.89,SSE,154,6.3,6.3,85,0.00,,CLR,0.00,VWS V14.01,2013-05-28 07:36:00,
2013-05-28 01:41:00,46.6,38.8,29.89,SE,146,3.1,6.3,74,0.00,,CLR,0.00,VWS V14.01,2013-05-28 07:41:00,
2013-05-28 01:46:00,46.2,38.8,29.89,SSE,153,3.1,6.3,75,0.00,,CLR,0.00,VWS V14.01,2013-05-28 07:46:00,
2013-05-28 01:51:00,46.9,36.6,29.89,ESE,114,4.0,6.3,67,0.00,,CLR,0.00,VWS V14.01,2013-05-28 07:51:00,
2013-05-28 01:56:00,47.3,36.9,29.89,SE,136,3.6,6.3,67,0.00,,CLR,0.00,VWS V14.01,2013-05-28 07:56:00,
2013-05-28 02:01:00,47.3,36.9,29.89,SE,133,5.8,7.6,67,0.00,,CLR,0.00,VWS V14.01,2013-05-28 08:01:00,
2013-05-28 02:06:00,47.7,37.3,29.89,SSE,163,5.4,7.6,67,0.00,,CLR,0.00,VWS V14.01,2013-05-28 08:06:00,
2013-05-28 02:11:00,47.7,36.5,29.89,SSE,164,6.3,8.3,65,0.00,,CLR,0.00,VWS V14.01,2013-05-28 08:11:00,
2013-05-28 02:16:00,47.7,36.5,29.89,SE,146,6.3,8.3,65,0.00,,CLR,0.00,VWS V14.01,2013-05-28 08:16:00,
2013-05-28 02:21:00,47.7,35.7,29.89,SSE,159,6.3,8.3,63,0.00,,CLR,0.00,VWS V14.01,2013-05-28 08:21:00,
2013-05-28 02:26:00,47.5,36.3,29.89,SSE,166,5.8,8.3,65,0.00,,CLR,0.00,VWS V14.01,2013-05-28 08:26:00,
2013-05-28 02:31:00,47.5,35.9,29.89,South,184,3.6,8.3,64,0.00,,CLR,0.00,VWS V14.01,2013-05-28 08:31:00,
2013-05-28 02:36:00,46.8,37.9,29.89,SW,221,4.9,5.4,71,0.00,,CLR,0.00,VWS V14.01,2013-05-28 08:36:00,
2013-05-28 02:41:00,46.0,37.5,29.89,SSW,193,4.0,6.3,72,0.00,,CLR,0.00,VWS V14.01,2013-05-28 08:41:00,
2013-05-28 02:46:00,46.4,34.1,29.89,South,185,3.6,6.3,62,0.00,,CLR,0.00,VWS V14.01,2013-05-28 08:46:00,
2013-05-28 02:50:00,46.4,32.4,29.89,South,187,5.4,6.3,58,0.00,,CLR,0.00,VWS V14.01,2013-05-28 08:50:00,
2013-05-28 02:55:00,45.9,32.8,29.89,South,183,3.1,6.3,60,0.00,,CLR,0.00,VWS V14.01,2013-05-28 08:55:00,
2013-05-28 03:00:00,45.3,33.9,29.89,SSW,193,3.6,6.3,64,0.00,,CLR,0.00,VWS V14.01,2013-05-28 09:00:00,
2013-05-28 03:05:00,45.0,34.7,29.89,SSW,198,4.9,5.4,67,0.00,,BKN120,0.00,VWS V14.01,2013-05-28 09:05:00,
2013-05-28 03:10:00,44.8,33.4,29.89,SSW,198,4.9,5.8,64,0.00,,BKN120,0.00,VWS V14.01,2013-05-28 09:10:00,
2013-05-28 03:15:00,45.1,33.3,29.89,SSW,195,3.6,5.8,63,0.00,,BKN120,0.00,VWS V14.01,2013-05-28 09:15:00,
2013-05-28 03:20:00,44.8,34.1,29.89,SSW,206,3.6,5.8,66,0.00,,BKN120,0.00,VWS V14.01,2013-05-28 09:20:00,
2013-05-28 03:25:00,44.8,33.0,29.89,SSW,204,2.7,5.8,63,0.00,,BKN120,0.00,VWS V14.01,2013-05-28 09:25:00,
2013-05-28 03:30:00,44.8,34.1,29.89,SSW,204,0.0,5.8,66,0.00,,BKN120,0.00,VWS V14.01,2013-05-28 09:30:00,
2013-05-28 03:35:00,44.6,32.8,29.89,SSW,204,2.2,2.7,63,0.00,,BKN120,0.00,VWS V14.01,2013-05-28 09:35:00,
2013-05-28 03:40:00,44.6,34.0,29.89,SSW,204,3.1,3.1,66,0.00,,BKN120,0.00,VWS V14.01,2013-05-28 09:40:00,
2013-05-28 03:45:00,44.8,30.9,29.89,South,172,2.7,4.0,58,0.00,,BKN120,0.00,VWS V14.01,2013-05-28 09:45:00,
2013-05-28 03:50:00,45.1,33.3,29.89,SSW,197,3.6,5.4,63,0.00,,BKN120,0.00,VWS V14.01,2013-05-28 09:50:00,
2013-05-28 03:55:00,45.0,33.1,29.89,WSW,245,3.6,5.4,63,0.00,,BKN120,0.00,VWS V14.01,2013-05-28 09:55:00,
2013-05-28 04:00:00,45.3,29.7,29.89,SSW,205,4.9,5.4,54,0.00,,BKN120,0.00,VWS V14.01,2013-05-28 10:00:00,
2013-05-28 04:05:00,46.9,27.8,29.89,WSW,239,8.3,8.3,47,0.00,,SCT110,0.00,VWS V14.01,2013-05-28 10:05:00,
2013-05-28 04:10:00,47.8,27.5,29.89,SSW,204,6.3,8.3,45,0.00,,SCT110,0.00,VWS V14.01,2013-05-28 10:10:00,
2013-05-28 04:15:00,48.2,27.9,29.89,SSW,213,5.4,8.3,45,0.00,,SCT110,0.00,VWS V14.01,2013-05-28 10:15:00,
2013-05-28 04:20:00,48.0,26.0,29.89,SSW,206,3.6,8.3,42,0.00,,SCT110,0.00,VWS V14.01,2013-05-28 10:20:00,
2013-05-28 04:25:00,47.8,26.4,29.89,SSE,156,5.4,8.3,43,0.00,,SCT110,0.00,VWS V14.01,2013-05-28 10:25:00,
2013-05-28 04:30:00,48.4,24.6,29.89,SW,226,2.2,8.3,39,0.00,,SCT110,0.00,VWS V14.01,2013-05-28 10:30:00,
2013-05-28 04:35:00,48.7,24.9,29.89,South,187,2.2,4.0,39,0.00,,SCT110,0.00,VWS V14.01,2013-05-28 10:35:00,
2013-05-28 04:40:00,49.6,24.5,29.89,SSW,206,5.8,5.8,37,0.00,,SCT110,0.00,VWS V14.01,2013-05-28 10:40:00,
2013-05-28 04:45:00,49.6,26.9,29.89,WSW,251,4.0,8.7,41,0.00,,SCT110,0.00,VWS V14.01,2013-05-28 10:45:00,
2013-05-28 04:50:00,48.9,27.4,29.89,SW,219,2.2,8.7,43,0.00,,SCT110,0.00,VWS V14.01,2013-05-28 10:50:00,
2013-05-28 04:55:00,47.8,28.6,29.89,West,272,3.6,8.7,47,0.00,,SCT110,0.00,VWS V14.01,2013-05-28 10:55:00,
2013-05-28 05:00:00,47.5,28.3,29.89,West,278,2.2,8.7,47,0.00,,SCT110,0.00,VWS V14.01,2013-05-28 11:00:00,
2013-05-28 05:05:00,47.1,29.0,29.89,NW,307,2.7,3.1,49,0.00,,OVC100,0.00,VWS V14.01,2013-05-28 11:05:00,
2013-05-28 05:10:00,46.8,29.1,29.89,NNE,29,3.1,3.6,50,0.00,,OVC100,0.00,VWS V14.01,2013-05-28 11:10:00,
2013-05-28 05:15:00,47.1,28.5,29.89,NW,315,5.8,5.8,48,0.00,,OVC100,0.00,VWS V14.01,2013-05-28 11:15:00,
2013-05-28 05:20:00,47.3,29.6,29.89,SW,229,5.4,5.8,50,0.00,,OVC100,0.00,VWS V14.01,2013-05-28 11:20:00,
2013-05-28 05:25:00,46.8,29.1,29.89,SW,220,6.3,8.1,50,0.00,,OVC100,0.00,VWS V14.01,2013-05-28 11:25:00,
2013-05-28 05:30:00,46.6,28.5,29.89,SW,223,2.7,8.1,49,0.00,,OVC100,0.00,VWS V14.01,2013-05-28 11:30:00,
2013-05-28 05:35:00,46.8,28.6,29.89,South,184,2.2,4.0,49,0.00,,OVC100,0.00,VWS V14.01,2013-05-28 11:35:00,
2013-05-28 05:40:00,46.8,28.1,29.89,NW,308,2.7,4.0,48,0.00,,OVC100,0.00,VWS V14.01,2013-05-28 11:40:00,
2013-05-28 05:45:00,46.6,29.9,29.89,SW,215,4.0,4.0,52,0.00,,OVC100,0.00,VWS V14.01,2013-05-28 11:45:00,
2013-05-28 05:50:00,46.4,29.3,29.89,SSW,196,6.3,6.3,51,0.00,,OVC100,0.00,VWS V14.01,2013-05-28 11:50:00,
2013-05-28 05:55:00,46.0,29.4,29.89,SSW,196,4.0,6.3,52,0.00,,OVC100,0.00,VWS V14.01,2013-05-28 11:55:00,
2013-05-28 06:00:00,46.2,28.1,29.89,SSW,196,0.0,6.3,49,0.00,,OVC100,0.00,VWS V14.01,2013-05-28 12:00:00,
2013-05-28 06:05:00,46.4,29.3,29.89,South,183,0.0,3.6,51,0.00,,OVC100,0.00,VWS V14.01,2013-05-28 12:05:00,
2013-05-28 06:10:00,46.2,30.5,29.89,WSW,245,5.4,7.6,54,0.00,,OVC100,0.00,VWS V14.01,2013-05-28 12:10:00,
2013-05-28 06:15:00,46.8,27.6,29.89,WNW,292,3.1,13.2,47,0.00,,OVC100,0.00,VWS V14.01,2013-05-28 12:15:00,
2013-05-28 06:20:00,45.7,28.1,29.89,West,266,6.3,13.2,50,0.00,,OVC100,0.00,VWS V14.01,2013-05-28 12:20:00,
2013-05-28 06:25:00,46.2,29.6,29.89,SSW,203,2.2,13.2,52,0.00,,OVC100,0.00,VWS V14.01,2013-05-28 12:25:00,
2013-05-28 06:30:00,47.3,29.1,29.89,East,101,3.6,13.2,49,0.00,,OVC100,0.00,VWS V14.01,2013-05-28 12:30:00,
2013-05-28 06:35:00,47.3,28.1,29.89,East,99,0.0,3.6,47,0.00,,OVC100,0.00,VWS V14.01,2013-05-28 12:35:00,
2013-05-28 06:40:00,47.3,28.6,29.89,North,357,2.7,3.6,48,0.00,,OVC100,0.00,VWS V14.01,2013-05-28 12:40:00,
2013-05-28 06:45:00,47.3,29.1,29.86,North,4,0.0,3.6,49,0.00,,OVC100,0.00,VWS V14.01,2013-05-28 12:45:00,
2013-05-28 06:50:00,47.8,29.6,29.86,North,4,2.2,3.6,49,0.00,,OVC100,0.00,VWS V14.01,2013-05-28 12:50:00,
2013-05-28 06:55:00,48.6,31.8,29.86,NNW,345,0.0,3.6,52,0.00,,OVC100,0.00,VWS V14.01,2013-05-28 12:55:00,
2013-05-28 07:00:00,48.4,32.5,29.86,NW,314,2.7,4.0,54,0.00,,OVC100,0.00,VWS V14.01,2013-05-28 13:00:00,
2013-05-28 07:05:00,48.0,31.7,29.86,NW,312,3.1,4.0,53,0.00,,OVC100,0.00,VWS V14.01,2013-05-28 13:05:00,
2013-05-28 07:10:00,47.7,30.9,29.86,NW,310,0.0,4.0,52,0.00,,OVC100,0.00,VWS V14.01,2013-05-28 13:10:00,
2013-05-28 07:15:00,47.5,30.8,29.86,NW,318,0.0,4.0,52,0.00,,OVC100,0.00,VWS V14.01,2013-05-28 13:15:00,
2013-05-28 07:20:00,47.8,32.9,29.86,WSW,241,2.7,4.0,56,0.00,,OVC100,0.00,VWS V14.01,2013-05-28 13:20:00,
2013-05-28 07:25:00,48.0,32.2,29.86,WSW,256,2.7,4.0,54,0.00,,OVC100,0.00,VWS V14.01,2013-05-28 13:25:00,
2013-05-28 07:30:00,48.0,31.7,29.86,West,267,4.0,5.4,53,0.00,,OVC100,0.00,VWS V14.01,2013-05-28 13:30:00,
2013-05-28 07:35:00,48.4,31.6,29.86,West,270,2.7,4.9,52,0.00,,OVC100,0.00,VWS V14.01,2013-05-28 13:35:00,
2013-05-28 07:40:00,48.6,32.7,29.86,WSW,256,3.6,4.9,54,0.00,,OVC100,0.00,VWS V14.01,2013-05-28 13:40:00,
2013-05-28 07:45:00,48.9,33.5,29.86,WSW,245,2.7,4.9,55,0.00,,OVC100,0.00,VWS V14.01,2013-05-28 13:45:00,
2013-05-28 07:50:00,49.1,33.2,29.86,SW,234,4.0,4.9,54,0.00,,OVC100,0.00,VWS V14.01,2013-05-28 13:50:00,
2013-05-28 07:55:00,49.3,32.9,29.86,WSW,247,3.1,4.9,53,0.00,,OVC100,0.00,VWS V14.01,2013-05-28 13:55:00,
2013-05-28 08:00:00,49.3,31.5,29.86,West,273,3.1,4.9,50,0.00,,OVC100,0.00,VWS V14.01,2013-05-28 14:00:00,
2013-05-28 08:05:00,50.0,31.6,29.86,WNW,285,0.0,3.6,49,0.00,,OVC120,0.00,VWS V14.01,2013-05-28 14:05:00,
2013-05-28 08:10:00,50.4,32.9,29.86,ENE,63,4.9,5.4,51,0.00,,OVC120,0.00,VWS V14.01,2013-05-28 14:10:00,
2013-05-28 08:15:00,50.9,31.9,29.86,ENE,61,2.2,5.4,48,0.00,,OVC120,0.00,VWS V14.01,2013-05-28 14:15:00,
2013-05-28 08:20:00,51.8,31.7,29.86,NE,56,2.7,5.4,46,0.00,,OVC120,0.00,VWS V14.01,2013-05-28 14:20:00,
2013-05-28 08:25:00,51.4,31.4,29.86,ENE,75,2.2,5.4,46,0.00,,OVC120,0.00,VWS V14.01,2013-05-28 14:25:00,
2013-05-28 08:30:00,51.6,32.1,29.86,ENE,71,0.0,5.4,47,0.00,,OVC120,0.00,VWS V14.01,2013-05-28 14:30:00,
2013-05-28 08:35:00,54.0,31.4,29.86,ESE,118,2.7,4.0,42,0.00,,OVC120,0.00,VWS V14.01,2013-05-28 14:35:00,
2013-05-28 08:40:00,53.4,30.9,29.86,ENE,62,2.2,4.0,42,0.00,,OVC120,0.00,VWS V14.01,2013-05-28 14:40:00,
2013-05-28 08:45:00,53.8,32.4,29.86,North,6,3.1,4.5,44,0.00,,OVC120,0.00,VWS V14.01,2013-05-28 14:45:00,
2013-05-28 08:50:00,52.9,30.4,29.86,NNE,24,4.0,4.5,42,0.00,,OVC120,0.00,VWS V14.01,2013-05-28 14:50:00,
2013-05-28 08:55:00,54.3,31.7,29.86,North,0,4.0,5.4,42,0.00,,OVC120,0.00,VWS V14.01,2013-05-28 14:55:00,
2013-05-28 09:00:00,59.9,34.9,29.86,North,11,2.7,5.8,39,0.00,,OVC120,0.00,VWS V14.01,2013-05-28 15:00:00,
2013-05-28 09:05:00,59.0,31.4,29.86,NNW,343,4.0,6.3,35,0.00,,OVC080,0.00,VWS V14.01,2013-05-28 15:05:00,
2013-05-28 09:10:00,56.3,31.0,29.86,WNW,296,5.4,6.3,38,0.00,,OVC080,0.00,VWS V14.01,2013-05-28 15:10:00,
2013-05-28 09:15:00,55.9,30.7,29.86,NNE,29,2.7,8.1,38,0.00,,OVC080,0.00,VWS V14.01,2013-05-28 15:15:00,
2013-05-28 09:20:00,55.9,31.4,29.86,NNE,31,0.0,8.1,39,0.00,,OVC080,0.00,VWS V14.01,2013-05-28 15:20:00,
2013-05-28 09:25:00,54.5,31.3,29.86,NNW,340,0.0,8.1,41,0.00,,OVC080,0.00,VWS V14.01,2013-05-28 15:25:00,
2013-05-28 09:30:00,54.7,32.1,29.86,NE,39,3.1,8.1,42,0.00,,OVC080,0.00,VWS V14.01,2013-05-28 15:30:00,
2013-05-28 09:35:00,54.5,31.3,29.86,NNE,15,4.0,4.0,41,0.00,,OVC080,0.00,VWS V14.01,2013-05-28 15:35:00,
2013-05-28 09:40:00,54.3,31.1,29.86,NNW,334,3.1,5.4,41,0.00,,OVC080,0.00,VWS V14.01,2013-05-28 15:40:00,
2013-05-28 09:45:00,56.7,35.6,29.86,North,11,3.6,5.4,45,0.00,,OVC080,0.00,VWS V14.01,2013-05-28 15:45:00,
2013-05-28 09:50:00,58.8,35.8,29.86,North,11,4.0,5.8,42,0.00,,OVC080,0.00,VWS V14.01,2013-05-28 15:50:00,
2013-05-28 09:55:00,59.7,32.7,29.86,NE,47,3.1,5.8,36,0.00,,OVC080,0.00,VWS V14.01,2013-05-28 15:55:00,
2013-05-28 10:00:00,61.2,34.7,29.86,NW,315,2.7,5.8,37,0.00,,OVC080,0.00,VWS V14.01,2013-05-28 16:00:00,
2013-05-28 10:05:00,59.0,32.1,29.86,East,91,2.2,5.4,36,0.00,,CLR,0.00,VWS V14.01,2013-05-28 16:05:00,
2013-05-28 10:10:00,58.5,33.0,29.86,NE,50,4.0,7.6,38,0.00,,CLR,0.00,VWS V14.01,2013-05-28 16:10:00,
2013-05-28 10:15:00,55.0,30.5,29.86,ENE,76,4.0,7.6,39,0.00,,CLR,0.00,VWS V14.01,2013-05-28 16:15:00,
2013-05-28 10:20:00,56.8,34.0,29.86,ENE,62,6.3,7.6,42,0.00,,CLR,0.00,VWS V14.01,2013-05-28 16:20:00,
2013-05-28 10:25:00,58.1,33.9,29.86,East,85,6.3,7.6,40,0.00,,CLR,0.00,VWS V14.01,2013-05-28 16:25:00,
2013-05-28 10:30:00,56.7,35.6,29.86,ENE,75,3.1,8.7,45,0.00,,CLR,0.00,VWS V14.01,2013-05-28 16:30:00,
2013-05-28 10:35:00,57.2,32.5,29.86,SE,125,3.6,6.3,39,0.00,,CLR,0.00,VWS V14.01,2013-05-28 16:35:00,
2013-05-28 10:40:00,56.3,32.9,29.86,East,100,4.0,6.3,41,0.00,,CLR,0.00,VWS V14.01,2013-05-28 16:40:00,
2013-05-28 10:45:00,56.5,33.7,29.86,SE,146,6.3,8.7,42,0.00,,CLR,0.00,VWS V14.01,2013-05-28 16:45:00,
2013-05-28 10:50:00,57.6,31.5,29.86,East,79,2.7,8.7,37,0.00,,CLR,0.00,VWS V14.01,2013-05-28 16:50:00,
2013-05-28 10:55:00,58.3,34.1,29.86,East,85,3.1,8.7,40,0.00,,CLR,0.00,VWS V14.01,2013-05-28 16:55:00,
2013-05-28 11:00:00,57.9,33.8,29.86,East,91,3.6,8.7,40,0.00,,CLR,0.00,VWS V14.01,2013-05-28 17:00:00,
2013-05-28 11:05:00,59.5,33.9,29.86,South,180,2.2,6.3,38,0.00,,CLR,0.00,VWS V14.01,2013-05-28 17:05:00,
2013-05-28 11:10:00,57.9,33.1,29.86,ENE,57,3.6,6.3,39,0.00,,CLR,0.00,VWS V14.01,2013-05-28 17:10:00,
2013-05-28 11:15:00,56.1,32.2,29.86,East,91,4.9,6.3,40,0.00,,CLR,0.00,VWS V14.01,2013-05-28 17:15:00,
2013-05-28 11:20:00,56.5,34.8,29.86,SSE,155,3.1,7.2,44,0.00,,CLR,0.00,VWS V14.01,2013-05-28 17:20:00,
2013-05-28 11:25:00,56.8,35.7,29.86,NE,56,5.4,7.6,45,0.00,,CLR,0.00,VWS V14.01,2013-05-28 17:25:00,
2013-05-28 11:30:00,59.0,34.7,29.83,South,183,3.1,7.6,40,0.00,,CLR,0.00,VWS V14.01,2013-05-28 17:30:00,
2013-05-28 11:35:00,57.2,36.1,29.83,East,91,5.8,7.2,45,0.00,,CLR,0.00,VWS V14.01,2013-05-28 17:35:00,
2013-05-28 11:40:00,57.7,33.0,29.83,East,98,2.7,8.1,39,0.00,,CLR,0.00,VWS V14.01,2013-05-28 17:40:00,
2013-05-28 11:45:00,57.6,32.8,29.83,SE,146,4.0,8.1,39,0.00,,CLR,0.00,VWS V14.01,2013-05-28 17:45:00,
2013-05-28 11:50:00,57.2,33.7,29.86,SE,130,5.4,8.1,41,0.00,,CLR,0.00,VWS V14.01,2013-05-28 17:50:00,
2013-05-28 11:55:00,56.1,34.5,29.86,SE,130,2.2,8.1,44,0.00,,CLR,0.00,VWS V14.01,2013-05-28 17:55:00,
2013-05-28 12:00:00,55.6,34.6,29.86,East,94,5.4,8.1,45,0.00,,CLR,0.00,VWS V14.01,2013-05-28 18:00:00,
2013-05-28 12:05:00,56.1,35.1,29.86,ENE,74,6.3,6.3,45,0.00,,CLR,0.00,VWS V14.01,2013-05-28 18:05:00,
2013-05-28 12:10:00,56.5,33.7,29.86,East,98,4.9,6.3,42,0.00,,CLR,0.00,VWS V14.01,2013-05-28 18:10:00,
2013-05-28 12:15:00,55.9,34.4,29.86,ESE,120,3.1,6.7,44,0.00,,CLR,0.00,VWS V14.01,2013-05-28 18:15:00,
2013-05-28 12:20:00,56.3,35.2,29.86,East,81,4.0,6.7,45,0.00,,CLR,0.00,VWS V14.01,2013-05-28 18:20:00,
2013-05-28 12:25:00,57.6,35.8,29.86,NNE,15,5.4,6.7,44,0.00,,CLR,0.00,VWS V14.01,2013-05-28 18:25:00,
2013-05-28 12:30:00,57.2,34.9,29.86,NNE,31,5.4,6.7,43,0.00,,CLR,0.00,VWS V14.01,2013-05-28 18:30:00,
2013-05-28 12:35:00,56.3,34.7,29.86,East,96,4.0,5.4,44,0.00,,CLR,0.00,VWS V14.01,2013-05-28 18:35:00,
2013-05-28 12:40:00,57.6,37.0,29.86,ENE,60,4.0,7.6,46,0.00,,CLR,0.00,VWS V14.01,2013-05-28 18:40:00,
2013-05-28 12:45:00,55.9,34.4,29.86,ENE,57,5.4,7.6,44,0.00,,CLR,0.00,VWS V14.01,2013-05-28 18:45:00,
2013-05-28 12:50:00,56.5,33.7,29.86,ENE,68,3.1,7.6,42,0.00,,CLR,0.00,VWS V14.01,2013-05-28 18:50:00,
2013-05-28 12:55:00,57.4,34.5,29.86,ENE,60,2.7,7.6,42,0.00,,CLR,0.00,VWS V14.01,2013-05-28 18:55:00,
2013-05-28 13:00:00,57.0,34.2,29.86,North,11,5.8,7.6,42,0.00,,CLR,0.00,VWS V14.01,2013-05-28 19:00:00,
2013-05-28 13:05:00,57.6,34.1,29.86,East,79,3.1,8.3,41,0.00,,FEW100,0.00,VWS V14.01,2013-05-28 19:05:00,
2013-05-28 13:10:00,59.4,34.4,29.86,NE,45,4.0,8.3,39,0.00,,FEW100,0.00,VWS V14.01,2013-05-28 19:10:00,
2013-05-28 13:15:00,58.5,33.6,29.86,ENE,74,4.0,8.3,39,0.00,,FEW100,0.00,VWS V14.01,2013-05-28 19:15:00,
2013-05-28 13:20:00,57.2,33.1,29.83,ENE,66,6.3,8.3,40,0.00,,FEW100,0.00,VWS V14.01,2013-05-28 19:20:00,
2013-05-28 13:25:00,56.8,34.0,29.83,ESE,106,4.0,8.7,42,0.00,,FEW100,0.00,VWS V14.01,2013-05-28 19:25:00,
2013-05-28 13:30:00,58.1,33.9,29.83,NE,52,4.0,8.7,40,0.00,,FEW100,0.00,VWS V14.01,2013-05-28 19:30:00,
2013-05-28 13:35:00,60.6,35.5,29.83,NNE,30,2.7,6.3,39,0.00,,FEW100,0.00,VWS V14.01,2013-05-28 19:35:00,
2013-05-28 13:40:00,62.6,35.3,29.83,WSW,257,2.2,6.3,36,0.00,,FEW100,0.00,VWS V14.01,2013-05-28 19:40:00,
2013-05-28 13:45:00,59.7,33.4,29.83,ENE,66,3.6,6.3,37,0.00,,FEW100,0.00,VWS V14.01,2013-05-28 19:45:00,
2013-05-28 13:50:00,57.2,31.8,29.83,ENE,73,2.7,6.3,38,0.00,,FEW100,0.00,VWS V14.01,2013-05-28 19:50:00,
2013-05-28 13:55:00,58.8,33.9,29.83,NNE,12,3.6,6.3,39,0.00,,FEW100,0.00,VWS V14.01,2013-05-28 19:55:00,
2013-05-28 14:00:00,61.5,35.0,29.83,North,6,5.4,8.1,37,0.00,,FEW100,0.00,VWS V14.01,2013-05-28 20:00:00,
2013-05-28 14:05:00,64.2,36.0,29.83,NNE,24,5.8,8.7,35,0.00,,BKN110,0.00,VWS V14.01,2013-05-28 20:05:00,
2013-05-28 14:10:00,61.2,33.3,29.83,North,11,8.3,10.1,35,0.00,,BKN110,0.00,VWS V14.01,2013-05-28 20:10:00,
2013-05-28 14:15:00,61.7,35.9,29.83,North,8,6.3,10.1,38,0.00,,BKN110,0.00,VWS V14.01,2013-05-28 20:15:00,
2013-05-28 14:20:00,59.9,35.5,29.83,NE,50,6.3,10.1,40,0.00,,BKN110,0.00,VWS V14.01,2013-05-28 20:20:00,
2013-05-28 14:25:00,59.5,35.2,29.83,ENE,62,5.8,10.1,40,0.00,,BKN110,0.00,VWS V14.01,2013-05-28 20:25:00,
2013-05-28 14:30:00,59.2,35.5,29.83,North,11,5.4,10.5,41,0.00,,BKN110,0.00,VWS V14.01,2013-05-28 20:30:00,
2013-05-28 14:35:00,58.5,36.7,29.83,NNE,24,6.7,8.7,44,0.00,,BKN110,0.00,VWS V14.01,2013-05-28 20:35:00,
2013-05-28 14:40:00,57.9,34.4,29.83,NE,39,8.3,10.5,41,0.00,,BKN110,0.00,VWS V14.01,2013-05-28 20:40:00,
2013-05-28 14:45:00,57.7,34.8,29.83,NE,36,4.0,10.5,42,0.00,,BKN110,0.00,VWS V14.01,2013-05-28 20:45:00,
2013-05-28 14:50:00,58.3,34.7,29.83,NNE,23,5.4,10.5,41,0.00,,BKN110,0.00,VWS V14.01,2013-05-28 20:50:00,
2013-05-28 14:55:00,58.3,34.7,29.83,NNE,33,2.7,10.5,41,0.00,,BKN110,0.00,VWS V14.01,2013-05-28 20:55:00,
2013-05-28 15:00:00,58.5,34.9,29.83,NNE,27,3.1,10.5,41,0.00,,BKN110,0.00,VWS V14.01,2013-05-28 21:00:00,
2013-05-28 15:05:00,60.6,36.2,29.83,North,9,4.0,4.0,40,0.00,,BKN085,0.00,VWS V14.01,2013-05-28 21:05:00,
2013-05-28 15:10:00,62.4,35.8,29.83,North,3,5.4,6.3,37,0.00,,BKN085,0.00,VWS V14.01,2013-05-28 21:10:00,
2013-05-28 15:15:00,62.4,35.8,29.83,North,357,3.6,6.3,37,0.00,,BKN085,0.00,VWS V14.01,2013-05-28 21:15:00,
2013-05-28 15:20:00,61.9,36.0,29.83,NE,49,5.8,7.6,38,0.00,,BKN085,0.00,VWS V14.01,2013-05-28 21:20:00,
2013-05-28 15:25:00,61.0,36.5,29.83,NNE,13,3.1,7.6,40,0.00,,BKN085,0.00,VWS V14.01,2013-05-28 21:25:00,
2013-05-28 15:30:00,59.7,36.0,29.83,North,353,4.0,7.6,41,0.00,,BKN085,0.00,VWS V14.01,2013-05-28 21:30:00,
2013-05-28 15:35:00,57.6,35.8,29.86,WNW,302,4.9,6.3,44,0.00,,BKN085,0.00,VWS V14.01,2013-05-28 21:35:00,
2013-05-28 15:40:00,57.2,36.6,29.86,NW,307,4.9,6.3,46,0.00,,BKN085,0.00,VWS V14.01,2013-05-28 21:40:00,
2013-05-28 15:45:00,56.3,38.4,29.86,NNW,329,4.9,6.3,51,0.00,,BKN085,0.00,VWS V14.01,2013-05-28 21:45:00,
2013-05-28 15:50:00,55.9,36.5,29.86,NNW,327,5.8,8.1,48,0.00,,BKN085,0.00,VWS V14.01,2013-05-28 21:50:00,
2013-05-28 15:55:00,55.8,38.9,29.86,NW,322,4.9,8.1,53,0.00,,BKN085,0.00,VWS V14.01,2013-05-28 21:55:00,
2013-05-28 16:00:00,55.9,36.5,29.86,NNW,340,5.8,8.1,48,0.00,,BKN085,0.00,VWS V14.01,2013-05-28 22:00:00,
2013-05-28 16:05:00,56.3,37.4,29.86,NW,326,3.6,7.6,49,0.00,,OVC095,0.00,VWS V14.01,2013-05-28 22:05:00,
2013-05-28 16:10:00,56.3,37.9,29.86,WNW,293,6.3,8.7,50,0.00,,OVC095,0.00,VWS V14.01,2013-05-28 22:10:00,
2013-05-28 16:15:00,56.3,35.8,29.86,WNW,293,6.3,10.1,46,0.00,,OVC095,0.00,VWS V14.01,2013-05-28 22:15:00,
2013-05-28 16:20:00,56.1,35.6,29.86,WNW,284,8.7,10.1,46,0.00,,OVC095,0.00,VWS V14.01,2013-05-28 22:20:00,
2013-05-28 16:25:00,55.8,36.9,29.86,NW,325,5.4,10.5,49,0.00,,OVC095,0.00,VWS V14.01,2013-05-28 22:25:00,
2013-05-28 16:30:00,56.8,36.8,29.86,North,353,6.3,10.5,47,0.00,,OVC095,0.00,VWS V14.01,2013-05-28 22:30:00,
2013-05-28 16:35:00,57.4,36.2,29.83,WNW,285,5.8,8.1,45,0.00,,OVC095,0.00,VWS V14.01,2013-05-28 22:35:00,
2013-05-28 16:40:00,58.3,34.7,29.83,NW,310,3.6,8.1,41,0.00,,OVC095,0.00,VWS V14.01,2013-05-28 22:40:00,
2013-05-28 16:45:00,57.7,35.4,29.83,WNW,294,5.4,8.1,43,0.00,,OVC095,0.00,VWS V14.01,2013-05-28 22:45:00,
2013-05-28 16:50:00,57.4,36.2,29.86,NNW,345,3.1,8.1,45,0.00,,OVC095,0.00,VWS V14.01,2013-05-28 22:50:00,
2013-05-28 16:55:00,58.5,37.8,29.86,North,353,3.1,8.1,46,0.00,,OVC095,0.00,VWS V14.01,2013-05-28 22:55:00,
2013-05-28 17:00:00,58.6,35.6,29.86,NNE,28,2.7,8.1,42,0.00,,OVC095,0.00,VWS V14.01,2013-05-28 23:00:00,
2013-05-28 17:05:00,57.9,35.6,29.86,NNW,337,4.0,6.3,43,0.00,,OVC085,0.00,VWS V14.01,2013-05-28 23:05:00,
2013-05-28 17:10:00,57.9,40.4,29.86,NW,322,9.6,11.0,52,0.00,,OVC085,0.00,VWS V14.01,2013-05-28 23:10:00,
2013-05-28 17:15:00,58.1,40.6,29.86,NW,322,8.3,11.9,52,0.00,,OVC085,0.00,VWS V14.01,2013-05-28 23:15:00,
2013-05-28 17:20:00,54.7,41.1,29.86,NNW,330,11.0,11.9,60,0.00,,OVC085,0.00,VWS V14.01,2013-05-28 23:20:00,
2013-05-28 17:25:00,53.4,41.6,29.86,North,0,8.7,11.9,64,0.00,,OVC085,0.00,VWS V14.01,2013-05-28 23:25:00,
2013-05-28 17:30:00,52.0,39.8,29.86,NNW,334,8.3,13.2,63,0.00,,OVC085,0.00,VWS V14.01,2013-05-28 23:30:00,
2013-05-28 17:35:00,51.6,39.8,29.86,NW,318,8.1,15.4,64,0.00,,OVC085,0.00,VWS V14.01,2013-05-28 23:35:00,
2013-05-28 17:40:00,51.1,40.1,29.86,NNW,343,8.3,15.4,66,0.00,,OVC085,0.00,VWS V14.01,2013-05-28 23:40:00,
2013-05-28 17:45:00,50.9,39.2,29.86,NW,311,8.1,15.4,64,0.00,,OVC085,0.00,VWS V14.01,2013-05-28 23:45:00,
2013-05-28 17:50:00,51.1,39.3,29.86,NNW,334,8.3,15.4,64,0.00,,OVC085,0.00,VWS V14.01,2013-05-28 23:50:00,
2013-05-28 17:55:00,50.9,38.4,29.86,North,0,5.4,15.4,62,0.00,,OVC085,0.00,VWS V14.01,2013-05-28 23:55:00,
2013-05-28 18:00:00,49.8,39.3,29.86,NW,326,9.2,15.4,67,0.00,,OVC085,0.00,VWS V14.01,2013-05-29 00:00:00,
2013-05-28 18:05:00,50.2,39.3,29.86,NNW,340,6.3,8.7,66,0.00,,OVC095,0.00,VWS V14.01,2013-05-29 00:05:00,
2013-05-28 18:10:00,50.9,40.0,29.86,NW,324,6.3,8.7,66,0.00,,OVC095,0.00,VWS V14.01,2013-05-29 00:10:00,
2013-05-28 18:15:00,50.9,38.8,29.86,NNW,334,5.4,8.7,63,0.00,,OVC095,0.00,VWS V14.01,2013-05-29 00:15:00,
2013-05-28 18:20:00,50.9,38.8,29.86,WNW,297,6.3,8.7,63,0.00,,OVC095,0.00,VWS V14.01,2013-05-29 00:20:00,
2013-05-28 18:25:00,51.3,39.1,29.86,WNW,302,5.4,8.7,63,0.00,,OVC095,0.00,VWS V14.01,2013-05-29 00:25:00,
2013-05-28 18:30:00,51.4,37.6,29.86,NW,304,5.4,8.7,59,0.00,,OVC095,0.00,VWS V14.01,2013-05-29 00:30:00,
2013-05-28 18:35:00,51.6,38.2,29.86,West,273,4.0,6.3,60,0.00,,OVC095,0.00,VWS V14.01,2013-05-29 00:35:00,
2013-05-28 18:40:00,51.6,37.8,29.86,West,278,5.8,7.6,59,0.00,,OVC095,0.00,VWS V14.01,2013-05-29 00:40:00,
2013-05-28 18:45:00,51.6,39.0,29.86,WSW,252,10.1,10.1,62,0.00,,OVC095,0.00,VWS V14.01,2013-05-29 00:45:00,
2013-05-28 18:50:00,51.6,38.6,29.86,WNW,297,5.8,10.1,61,0.00,,OVC095,0.00,VWS V14.01,2013-05-29 00:50:00,
2013-05-28 18:55:00,51.1,38.9,29.86,NW,307,5.4,10.1,63,0.00,,OVC095,0.00,VWS V14.01,2013-05-29 00:55:00,
2013-05-28 19:00:00,48.9,39.9,29.86,West,276,5.4,10.1,71,0.00,,OVC095,0.00,VWS V14.01,2013-05-29 01:00:00,
2013-05-28 19:04:00,47.8,41.0,29.86,West,262,5.4,8.7,77,0.00,,OVC085,0.00,VWS V14.01,2013-05-29 01:04:00,
2013-05-28 19:09:00,47.3,42.7,29.86,WSW,243,4.9,8.7,84,0.00,,OVC085,0.00,VWS V14.01,2013-05-29 01:09:00,
2013-05-28 19:14:00,46.4,42.8,29.86,WSW,238,7.2,10.1,87,0.04,,OVC085,0.04,VWS V14.01,2013-05-29 01:14:00,
2013-05-28 19:19:00,45.5,42.5,29.86,WSW,258,6.3,11.0,89,0.08,,OVC085,0.08,VWS V14.01,2013-05-29 01:19:00,
2013-05-28 19:24:00,44.2,41.5,29.86,West,267,4.9,11.0,90,0.16,,OVC085,0.16,VWS V14.01,2013-05-29 01:24:00,
2013-05-28 19:29:00,44.1,41.3,29.86,WSW,255,5.4,11.0,90,0.16,,OVC085,0.16,VWS V14.01,2013-05-29 01:29:00,
2013-05-28 19:34:00,43.7,41.0,29.86,SW,231,5.4,5.4,90,0.35,,OVC085,0.35,VWS V14.01,2013-05-29 01:34:00,
2013-05-28 19:39:00,44.2,42.1,29.86,SSW,206,6.3,6.3,92,0.47,,OVC085,0.47,VWS V14.01,2013-05-29 01:39:00,
2013-05-28 19:44:00,44.8,42.9,29.86,SW,232,5.4,6.3,93,0.51,,OVC085,0.51,VWS V14.01,2013-05-29 01:44:00,
2013-05-28 19:49:00,45.3,43.7,29.86,West,272,6.3,8.1,94,0.55,,OVC085,0.55,VWS V14.01,2013-05-29 01:49:00,
2013-05-28 19:54:00,45.5,43.9,29.86,West,268,7.6,10.1,94,0.59,,OVC085,0.59,VWS V14.01,2013-05-29 01:54:00,
2013-05-28 19:59:00,45.7,44.1,29.86,SW,226,7.6,10.1,94,0.59,,OVC085,0.59,VWS V14.01,2013-05-29 01:59:00,
2013-05-28 20:04:00,46.0,44.4,29.89,SW,234,9.6,12.3,94,0.59,,OVC085,0.59,VWS V14.01,2013-05-29 02:04:00,
2013-05-28 20:09:00,45.7,44.1,29.89,SW,232,8.7,12.3,94,0.59,,OVC085,0.59,VWS V14.01,2013-05-29 02:09:00,
2013-05-28 20:14:00,45.3,43.7,29.89,SW,214,10.1,12.3,94,0.63,,OVC085,0.63,VWS V14.01,2013-05-29 02:14:00,
2013-05-28 20:19:00,45.0,43.3,29.89,SW,233,12.3,13.2,94,0.67,,OVC085,0.67,VWS V14.01,2013-05-29 02:19:00,
2013-05-28 20:24:00,44.8,43.2,29.89,West,278,7.6,13.2,94,0.67,,OVC085,0.67,VWS V14.01,2013-05-29 02:24:00,
2013-05-28 20:29:00,45.1,43.5,29.89,WSW,249,7.6,13.2,94,0.67,,OVC085,0.67,VWS V14.01,2013-05-29 02:29:00,
2013-05-28 20:34:00,44.8,43.2,29.89,SW,219,9.2,10.5,94,0.51,,OVC085,0.67,VWS V14.01,2013-05-29 02:34:00,
2013-05-28 20:39:00,44.8,43.2,29.89,SW,229,8.3,11.4,94,0.55,,OVC085,0.71,VWS V14.01,2013-05-29 02:39:00,
2013-05-28 20:44:00,44.8,43.2,29.89,SW,235,12.3,13.2,94,0.55,,OVC085,0.71,VWS V14.01,2013-05-29 02:44:00,
2013-05-28 20:49:00,44.6,43.0,29.89,WSW,243,10.5,16.8,94,0.55,,OVC085,0.71,VWS V14.01,2013-05-29 02:49:00,
2013-05-28 20:54:00,44.6,43.0,29.89,WSW,246,8.3,17.0,94,0.55,,OVC085,0.71,VWS V14.01,2013-05-29 02:54:00,
2013-05-28 20:59:00,44.2,42.6,29.89,WSW,239,12.3,17.0,94,0.55,,OVC085,0.71,VWS V14.01,2013-05-29 02:59:00,
2013-05-28 21:04:00,44.2,42.6,29.89,WSW,247,10.1,15.4,94,0.12,,OVC080,0.71,VWS V14.01,2013-05-29 03:04:00,
2013-05-28 21:09:00,44.2,42.6,29.89,WSW,241,8.3,15.4,94,0.12,,OVC080,0.71,VWS V14.01,2013-05-29 03:09:00,
2013-05-28 21:14:00,44.1,42.2,29.89,SW,222,10.5,17.4,93,0.12,,OVC080,0.71,VWS V14.01,2013-05-29 03:14:00,
2013-05-28 21:19:00,44.1,42.2,29.89,SW,232,11.0,17.4,93,0.12,,OVC080,0.71,VWS V14.01,2013-05-29 03:19:00,
2013-05-28 21:24:00,43.7,41.5,29.89,WSW,241,11.0,17.4,92,0.12,,OVC080,0.71,VWS V14.01,2013-05-29 03:24:00,
2013-05-28 21:29:00,43.3,41.2,29.89,SW,219,10.1,17.4,92,0.12,,OVC080,0.71,VWS V14.01,2013-05-29 03:29:00,
2013-05-28 21:34:00,43.3,41.2,29.89,SW,218,7.6,14.1,92,0.08,,OVC080,0.75,VWS V14.01,2013-05-29 03:34:00,
2013-05-28 21:39:00,43.3,41.2,29.89,SSW,199,8.1,14.1,92,0.08,,OVC080,0.75,VWS V14.01,2013-05-29 03:39:00,
2013-05-28 21:44:00,43.3,41.5,29.89,South,185,8.1,14.1,93,0.08,,OVC080,0.75,VWS V14.01,2013-05-29 03:44:00,
2013-05-28 21:49:00,43.5,41.6,29.89,SSW,202,6.3,14.1,93,0.08,,OVC080,0.75,VWS V14.01,2013-05-29 03:49:00,
2013-05-28 21:54:00,43.5,41.6,29.89,SSW,199,8.1,14.1,93,0.08,,OVC080,0.75,VWS V14.01,2013-05-29 03:54:00,
2013-05-28 21:59:00,43.5,41.9,29.89,SW,215,7.6,14.1,94,0.12,,OVC080,0.79,VWS V14.01,2013-05-29 03:59:00,
2013-05-28 22:01:00,43.5,41.9,29.89,SW,220,6.3,14.1,94,0.12,,OVC080,0.79,VWS V14.01,2013-05-29 04:01:00,
2013-05-28 22:06:00,43.5,41.9,29.89,SW,232,11.0,11.0,94,0.08,,OVC080,0.79,VWS V14.01,2013-05-29 04:06:00,
2013-05-28 22:11:00,43.5,41.9,29.89,WSW,240,11.9,11.9,94,0.08,,OVC080,0.79,VWS V14.01,2013-05-29 04:11:00,
2013-05-28 22:16:00,43.5,41.9,29.89,SW,225,8.1,13.2,94,0.12,,OVC080,0.83,VWS V14.01,2013-05-29 04:16:00,
2013-05-28 22:21:00,43.5,41.9,29.89,SW,229,10.1,13.2,94,0.12,,OVC080,0.83,VWS V14.01,2013-05-29 04:21:00,
2013-05-28 22:26:00,43.3,41.7,29.89,SW,229,7.6,13.2,94,0.12,,OVC080,0.83,VWS V14.01,2013-05-29 04:26:00,
2013-05-28 22:31:00,43.5,41.9,29.89,SW,230,9.6,13.2,94,0.16,,OVC080,0.87,VWS V14.01,2013-05-29 04:31:00,
2013-05-28 22:36:00,43.3,41.7,29.89,SSW,212,6.3,11.0,94,0.16,,OVC080,0.87,VWS V14.01,2013-05-29 04:36:00,
2013-05-28 22:41:00,43.5,41.9,29.89,SW,219,10.5,11.0,94,0.16,,OVC080,0.87,VWS V14.01,2013-05-29 04:41:00,
2013-05-28 22:46:00,43.5,41.9,29.89,SSW,196,5.4,11.0,94,0.20,,OVC080,0.91,VWS V14.01,2013-05-29 04:46:00,
2013-05-28 22:51:00,43.5,41.9,29.89,South,169,4.9,11.0,94,0.20,,OVC080,0.91,VWS V14.01,2013-05-29 04:51:00,
2013-05-28 22:56:00,43.5,41.9,29.89,SSE,147,7.6,11.0,94,0.20,,OVC080,0.91,VWS V14.01,2013-05-29 04:56:00,
2013-05-28 23:01:00,43.3,41.7,29.89,SSW,192,6.3,11.0,94,0.20,,OVC080,0.91,VWS V14.01,2013-05-29 05:01:00,
2013-05-28 23:06:00,43.5,41.9,29.89,SSW,202,5.8,8.3,94,0.12,,OVC080,0.91,VWS V14.01,2013-05-29 05:06:00,
2013-05-28 23:11:00,43.2,41.5,29.89,SSW,199,3.6,8.3,94,0.16,,OVC080,0.94,VWS V14.01,2013-05-29 05:11:00,
2013-05-28 23:16:00,42.8,41.2,29.89,WSW,237,7.6,11.0,94,0.16,,OVC080,0.94,VWS V14.01,2013-05-29 05:16:00,
2013-05-28 23:21:00,42.6,41.0,29.89,SW,219,13.2,13.2,94,0.16,,OVC080,0.94,VWS V14.01,2013-05-29 05:21:00,
2013-05-28 23:26:00,42.4,40.8,29.89,SW,234,8.3,13.2,94,0.16,,OVC080,0.94,VWS V14.01,2013-05-29 05:26:00,
2013-05-28 23:31:00,42.6,41.0,29.89,SSW,211,5.8,13.2,94,0.16,,OVC080,0.94,VWS V14.01,2013-05-29 05:31:00,
2013-05-28 23:36:00,42.4,40.8,29.89,SW,224,5.4,8.7,94,0.08,,OVC080,0.94,VWS V14.01,2013-05-29 05:36:00,
2013-05-28 23:41:00,42.6,41.0,29.89,WSW,242,10.5,10.5,94,0.08,,OVC080,0.94,VWS V14.01,2013-05-29 05:41:00,
2013-05-28 23:46:00,42.6,41.0,29.89,WSW,247,10.1,12.8,94,0.12,,OVC080,0.98,VWS V14.01,2013-05-29 05:46:00,
2013-05-28 23:51:00,42.6,41.0,29.89,WSW,242,8.1,13.2,94,0.12,,OVC080,0.98,VWS V14.01,2013-05-29 05:51:00,
2013-05-28 23:56:00,42.6,41.0,29.89,SW,233,8.1,13.2,94,0.12,,OVC080,0.98,VWS V14.01,2013-05-29 05:56:00,